CW9086 Weather Reports


Display with metric or nautical units.
time (UTC)temp
F
wind
direction
speed
MPH
gust
MPH
rain 1hr
in
rain 24hr
in
rain mn
in
humidity
%
barometer
mb
20260510122105 52 214 0.0 0.0 0.00 0.00 0.00 87 1017.0
20260510121105 52 214 0.0 0.0 0.00 0.00 0.00 87 1016.6
20260510120606 52 214 0.0 0.0 0.00 0.00 0.00 87 1016.9
20260510114605 52 214 0.0 0.0 0.00 0.00 0.00 87 1016.9
20260510113605 52 214 0.0 0.0 0.00 0.00 0.00 87 1017.2
20260510113105 52 214 0.0 0.0 0.00 0.00 0.00 87 1017.5
20260510112604 52 214 0.0 0.0 0.00 0.00 0.00 86 1017.4
20260510112105 52 214 0.0 0.0 0.00 0.00 0.00 86 1017.4
20260510111604 52 214 0.0 2.0 0.00 0.00 0.00 86 1017.5
20260510110605 52 214 0.0 2.0 0.00 0.00 0.00 86 1017.4
20260510110105 52 214 0.0 1.0 0.00 0.00 0.00 86 1017.2
20260510105605 52 214 0.0 1.0 0.00 0.00 0.00 86 1017.2
20260510105104 52 214 0.0 1.0 0.00 0.00 0.00 86 1017.0
20260510104604 52 214 0.0 1.0 0.00 0.00 0.00 86 1017.0
20260510104105 52 214 0.0 1.0 0.00 0.00 0.00 86 1017.0
20260510103604 52 214 0.0 0.0 0.00 0.00 0.00 86 1016.9
20260510103104 52 214 0.0 0.0 0.00 0.00 0.00 86 1016.9
20260510102604 52 214 0.0 1.0 0.00 0.00 0.00 86 1017.0
20260510102104 52 214 0.0 1.0 0.00 0.00 0.00 86 1017.0
20260510101604 52 214 0.0 0.0 0.00 0.00 0.00 86 1017.1
20260510095605 52 214 0.0 3.0 0.00 0.00 0.00 85 1017.1
20260510095104 52 214 0.0 2.0 0.00 0.00 0.00 85 1017.3
20260510094605 52 214 0.0 1.0 0.00 0.00 0.00 85 1017.5
20260510094104 53 214 0.0 1.0 0.00 0.00 0.00 85 1017.3
20260510093605 53 214 0.0 1.0 0.00 0.00 0.00 85 1017.1
20260510093104 53 214 0.0 1.0 0.00 0.00 0.00 85 1017.0
20260510092604 53 214 0.0 1.0 0.00 0.00 0.00 85 1016.9
20260510092105 53 214 0.0 1.0 0.00 0.00 0.00 85 1016.9
20260510091604 53 214 0.0 1.0 0.00 0.00 0.00 85 1016.8
20260510090104 53 214 0.0 1.0 0.00 0.00 0.00 85 1016.8
20260510085604 53 214 0.0 1.0 0.00 0.00 0.00 85 1016.7
20260510085104 53 214 0.0 1.0 0.00 0.00 0.00 85 1016.8
20260510084604 53 214 0.0 2.0 0.00 0.00 0.00 85 1016.9
20260510084104 53 214 0.0 2.0 0.00 0.00 0.00 85 1017.0
20260510083606 53 214 0.0 2.0 0.00 0.00 0.00 85 1017.1
20260510083104 53 214 0.0 2.0 0.00 0.00 0.00 85 1017.1
20260510082606 53 214 0.0 2.0 0.00 0.00 0.00 85 1017.2
20260510081604 53 214 0.0 3.0 0.00 0.00 0.00 85 1017.1
20260510081105 53 214 0.0 3.0 0.00 0.00 0.00 85 1017.0
20260510080604 53 214 0.0 3.0 0.00 0.00 0.00 85 1017.1
20260510080104 53 214 0.0 2.0 0.00 0.00 0.00 85 1017.0
20260510075104 53 214 0.0 2.0 0.00 0.00 0.00 85 1016.9
20260510074604 53 214 0.0 2.0 0.00 0.00 0.00 85 1016.9
20260510073105 53 214 0.0 2.0 0.00 0.00 0.00 85 1016.7
20260510072605 53 214 0.0 1.0 0.00 0.00 0.00 85 1016.7
20260510072106 54 214 0.0 3.0 0.00 0.00 0.00 85 1016.6
20260510070604 54 214 0.0 1.0 0.00 0.00 0.00 85 1016.6
20260510070106 54 214 0.0 2.0 0.00 0.00 0.00 85 1016.6
20260510065105 54 214 0.0 3.0 0.00 0.00 0.00 85 1016.5
20260510064604 54 214 1.0 3.0 0.00 0.00 0.00 85 1016.5
20260510063605 54 212 0.0 3.0 0.00 0.00 0.00 85 1016.6
20260510063104 54 212 1.0 2.0 0.00 0.00 0.00 85 1016.6
20260510062604 54 212 0.0 3.0 0.00 0.00 0.00 85 1016.7
20260510062104 54 212 0.0 3.0 0.00 0.00 0.00 85 1016.6
20260510061605 54 212 0.0 1.0 0.00 0.00 0.00 85 1016.6
20260510060606 54 212 0.0 2.0 0.00 0.00 0.00 85 1016.4
20260510060105 54 212 0.0 3.0 0.00 0.00 0.00 85 1016.4
20260510055604 54 212 1.0 3.0 0.00 0.00 0.00 85 1016.4
20260510055104 54 212 1.0 3.0 0.00 0.00 0.00 85 1016.5
20260510054604 54 212 0.0 3.0 0.00 0.00 0.00 85 1016.5
20260510054105 54 211 1.0 3.0 0.00 0.00 0.00 85 1016.5
20260510053604 54 195 0.0 3.0 0.00 0.00 0.00 85 1016.5
20260510052604 54 195 0.0 3.0 0.00 0.00 0.00 84 1016.5
20260510052105 54 195 0.0 3.0 0.00 0.00 0.00 84 1016.6
20260510051605 54 213 0.0 3.0 0.00 0.00 0.00 84 1016.6
20260510051104 54 212 1.0 3.0 0.00 0.00 0.00 84 1016.6
20260510050604 54 212 0.0 2.0 0.00 0.00 0.00 84 1016.6
20260510050104 54 212 0.0 3.0 0.00 0.00 0.00 84 1016.5
20260510045605 54 212 1.0 3.0 0.00 0.00 0.00 84 1016.5
20260510044604 54 212 2.0 5.0 0.00 0.00 0.00 84 1016.4
20260510043604 54 213 1.0 6.0 0.00 0.00 0.00 83 1016.2
20260510043104 54 214 2.0 6.0 0.00 0.00 0.00 83 1016.2
20260510042604 55 214 1.0 5.0 0.00 0.00 0.00 83 1016.3
20260510042104 55 198 2.0 5.0 0.00 0.00 0.00 83 1016.2
20260510041603 55 212 1.0 6.0 0.00 0.00 0.00 83 1016.2
20260510041104 55 202 1.0 6.0 0.00 0.00 0.00 83 1016.1
20260510040605 55 207 1.0 3.0 0.00 0.00 0.00 83 1015.9
20260510040104 55 211 1.0 3.0 0.00 0.00 0.00 82 1015.9
20260510035604 55 210 1.0 3.0 0.00 0.00 0.00 83 1015.9
20260510033604 56 215 1.0 3.0 0.00 0.00 0.00 82 1015.6
20260510033105 56 209 0.0 6.0 0.00 0.00 0.00 81 1015.6
20260510032105 57 213 1.0 6.0 0.00 0.00 0.00 81 1015.5
20260510031604 57 210 1.0 6.0 0.00 0.00 0.00 81 1015.4
20260510031104 57 212 1.0 8.0 0.00 0.00 0.00 81 1015.3
20260510030605 57 212 1.0 8.0 0.00 0.00 0.00 81 1015.2
20260510030104 58 209 1.0 8.0 0.00 0.00 0.00 81 1015.1
20260510025605 58 212 1.0 5.0 0.00 0.00 0.00 80 1015.1
20260510024604 58 212 1.0 3.0 0.00 0.00 0.00 80 1015.2
20260510024103 58 214 0.0 3.0 0.00 0.00 0.00 80 1015.2
20260510023604 58 214 1.0 3.0 0.00 0.00 0.00 79 1015.2
20260510023104 58 213 0.0 3.0 0.00 0.00 0.00 79 1015.2
20260510022104 58 215 1.0 3.0 0.00 0.00 0.00 79 1015.1
20260510021605 59 215 1.0 3.0 0.00 0.00 0.00 79 1015.1
20260510021105 59 215 0.0 3.0 0.00 0.00 0.00 78 1015.1
20260510020604 59 213 1.0 3.0 0.00 0.00 0.00 78 1015.1
20260510020105 59 213 1.0 5.0 0.00 0.00 0.00 78 1015.2
20260510015604 59 213 1.0 5.0 0.00 0.00 0.00 78 1015.2
20260510015103 59 211 2.0 5.0 0.00 0.00 0.00 78 1015.3
20260510014604 59 215 1.0 3.0 0.00 0.00 0.00 78 1015.3
20260510014104 59 214 2.0 5.0 0.00 0.00 0.00 78 1015.4
20260510013604 60 213 2.0 5.0 0.00 0.00 0.00 78 1015.6
20260510013105 60 212 2.0 5.0 0.00 0.00 0.00 79 1015.7
20260510012604 60 213 1.0 3.0 0.00 0.00 0.00 79 1015.7
20260510012103 60 214 1.0 3.0 0.00 0.00 0.00 78 1015.8
20260510011605 60 209 1.0 3.0 0.00 0.00 0.00 79 1015.8
20260510011104 60 210 1.0 8.0 0.00 0.00 0.00 79 1015.8
20260510010104 60 210 0.0 6.0 0.00 0.00 0.00 78 1016.0
20260510005605 61 211 2.0 5.0 0.00 0.00 0.00 78 1016.0
20260510005105 61 212 1.0 5.0 0.00 0.00 0.00 77 1016.0
20260510004605 61 211 1.0 6.0 0.00 0.00 0.00 77 1016.1
20260510004104 61 213 1.0 6.0 0.00 0.00 0.00 77 1016.1
20260510003605 62 213 2.0 5.0 0.00 0.00 0.00 76 1016.1
20260510002604 62 217 2.0 9.0 0.00 0.00 0.00 77 1015.9
20260510002106 62 215 2.0 9.0 0.00 0.00 0.00 76 1015.9
20260510001605 62 213 2.0 6.0 0.00 0.00 0.00 76 1015.9
20260510001104 62 205 2.0 5.0 0.00 0.00 0.00 75 1016.0
20260510000605 62 215 2.0 8.0 0.00 0.00 0.00 75 1016.0
20260510000105 62 212 3.0 8.0 0.00 0.00 0.00 74 1016.0
20260509235606 63 212 2.0 5.0 0.00 0.00 0.00 75 1016.0
20260509235104 63 213 2.0 6.0 0.00 0.00 0.00 74 1016.1
20260509234604 63 213 1.0 6.0 0.00 0.00 0.00 74 1016.2
20260509234104 63 214 2.0 6.0 0.00 0.00 0.00 74 1016.2
20260509233605 63 207 2.0 6.0 0.00 0.00 0.00 75 1016.2
20260509233105 63 215 1.0 3.0 0.00 0.00 0.00 75 1016.3
20260509232105 63 216 2.0 8.0 0.00 0.00 0.00 75 1016.5
20260509231106 63 214 1.0 3.0 0.00 0.00 0.00 75 1016.9
20260509230605 63 214 2.0 3.0 0.00 0.00 0.00 74 1016.9
20260509230104 64 212 1.0 3.0 0.00 0.00 0.00 74 1016.8
20260509225604 64 213 1.0 5.0 0.00 0.00 0.00 75 1017.0
20260509224606 64 213 2.0 5.0 0.00 0.00 0.00 73 1017.0
20260509224104 64 213 1.0 3.0 0.00 0.00 0.00 73 1017.1
20260509223604 65 210 2.0 3.0 0.00 0.00 0.00 72 1017.2
20260509223105 65 214 2.0 5.0 0.00 0.00 0.00 71 1017.2
20260509222604 65 216 2.0 5.0 0.00 0.00 0.00 71 1017.2
20260509222106 66 212 1.0 3.0 0.00 0.00 0.00 72 1017.2
20260509221105 66 212 2.0 6.0 0.00 0.00 0.00 71 1017.2
20260509220105 65 214 1.0 5.0 0.00 0.00 0.00 72 1017.3
20260509215604 65 214 2.0 5.0 0.00 0.00 0.00 70 1017.3
20260509215105 65 212 1.0 3.0 0.00 0.00 0.00 70 1017.4
20260509214604 65 216 1.0 3.0 0.00 0.00 0.00 71 1017.5
20260509214105 65 216 1.0 3.0 0.00 0.00 0.00 72 1017.5
20260509213604 65 216 1.0 3.0 0.00 0.00 0.00 72 1017.5
20260509213104 65 216 1.0 3.0 0.00 0.00 0.00 71 1017.6
20260509212604 65 214 0.0 3.0 0.00 0.00 0.00 72 1017.7
20260509212105 64 213 1.0 3.0 0.00 0.00 0.00 72 1017.8
20260509211605 65 216 1.0 6.0 0.00 0.00 0.00 73 1017.9
20260509211106 64 217 1.0 6.0 0.00 0.00 0.00 73 1017.8
20260509210605 64 218 1.0 5.0 0.00 0.00 0.00 73 1017.8
20260509210105 64 214 1.0 5.0 0.00 0.00 0.00 73 1017.9
20260509205604 64 217 1.0 3.0 0.00 0.00 0.00 73 1018.1
20260509205105 64 223 1.0 5.0 0.00 0.00 0.00 72 1018.1
20260509204105 64 210 1.0 6.0 0.00 0.00 0.00 73 1018.2
20260509203106 64 218 1.0 3.0 0.00 0.00 0.00 74 1018.3
20260509202105 64 218 1.0 6.0 0.00 0.00 0.00 75 1018.4
20260509201604 63 218 1.0 6.0 0.00 0.00 0.00 75 1018.4
20260509201105 63 219 1.0 3.0 0.00 0.00 0.00 75 1018.6
20260509200604 63 220 1.0 3.0 0.00 0.00 0.00 74 1018.6
20260509195604 63 218 1.0 3.0 0.00 0.00 0.00 74 1018.7
20260509195104 63 217 1.0 5.0 0.00 0.00 0.00 74 1018.6
20260509194604 63 216 1.0 5.0 0.00 0.00 0.00 75 1018.6
20260509194104 63 221 1.0 5.0 0.00 0.00 0.00 75 1018.7
20260509193606 63 220 1.0 3.0 0.00 0.00 0.00 75 1018.7
20260509193104 63 218 1.0 3.0 0.00 0.00 0.00 75 1018.6
20260509192606 63 216 0.0 3.0 0.00 0.00 0.00 75 1018.8
20260509192104 63 216 1.0 3.0 0.00 0.00 0.00 74 1018.7
20260509191604 63 219 1.0 3.0 0.00 0.00 0.00 73 1018.8
20260509191105 63 219 1.0 3.0 0.00 0.00 0.00 73 1018.8
20260509190604 63 220 1.0 3.0 0.00 0.00 0.00 73 1018.9
20260509190106 64 215 1.0 9.0 0.00 0.00 0.00 73 1019.0
20260509185604 63 218 1.0 9.0 0.00 0.00 0.00 73 1018.8
20260509185106 64 223 1.0 9.0 0.00 0.00 0.00 73 1018.9
20260509184604 64 224 1.0 3.0 0.00 0.00 0.00 72 1019.1
20260509184105 64 222 1.0 3.0 0.00 0.00 0.00 72 1019.1
20260509183605 64 222 1.0 3.0 0.00 0.00 0.00 72 1019.1
20260509183105 65 217 1.0 3.0 0.00 0.00 0.00 72 1019.2
20260509181604 65 210 1.0 3.0 0.00 0.00 0.00 70 1019.2
20260509181105 65 213 1.0 3.0 0.00 0.00 0.00 69 1019.2
20260509180604 64 213 0.0 3.0 0.00 0.00 0.00 70 1019.0
20260509180104 64 213 1.0 3.0 0.00 0.00 0.00 70 1019.0
20260509175604 63 213 1.0 2.0 0.00 0.00 0.00 74 1019.0
20260509175104 63 213 0.0 3.0 0.00 0.00 0.00 73 1019.1
20260509174604 62 212 1.0 5.0 0.00 0.00 0.00 72 1019.1
20260509174104 62 212 2.0 5.0 0.00 0.00 0.00 73 1019.1
20260509173604 62 212 2.0 3.0 0.00 0.00 0.00 74 1019.2
20260509173104 61 212 1.0 3.0 0.00 0.00 0.00 73 1019.3
20260509172605 61 214 1.0 3.0 0.00 0.00 0.00 74 1019.3
20260509171604 61 213 0.0 3.0 0.00 0.00 0.00 76 1019.3
20260509171103 61 213 1.0 3.0 0.00 0.00 0.00 76 1019.3
20260509170604 60 214 1.0 3.0 0.00 0.00 0.00 77 1019.3
20260509170104 60 212 1.0 3.0 0.00 0.00 0.00 77 1019.3
20260509165104 60 212 0.0 3.0 0.00 0.00 0.00 77 1019.4
20260509164604 60 212 2.0 3.0 0.00 0.00 0.00 77 1019.3
20260509163605 60 213 1.0 5.0 0.00 0.00 0.00 78 1019.4
20260509163105 59 214 1.0 8.0 0.00 0.00 0.00 79 1019.5
20260509162604 59 214 1.0 8.0 0.00 0.00 0.00 78 1019.5
20260509162104 59 212 1.0 3.0 0.00 0.00 0.00 79 1019.5
20260509161604 58 214 1.0 3.0 0.00 0.00 0.00 80 1019.5
20260509161104 58 202 1.0 3.0 0.00 0.00 0.00 82 1019.4
20260509160604 58 211 2.0 7.0 0.00 0.00 0.00 82 1019.4
20260509160104 57 214 1.0 7.0 0.00 0.00 0.00 83 1019.3
20260509155604 57 212 1.0 7.0 0.00 0.00 0.00 84 1019.4
20260509155104 56 204 0.0 5.0 0.00 0.00 0.00 85 1019.4
20260509154105 56 212 1.0 3.0 0.00 0.00 0.00 87 1019.5
20260509153604 55 212 1.0 3.0 0.00 0.00 0.00 87 1019.5
20260509153105 55 212 1.0 3.0 0.00 0.00 0.00 88 1019.6
20260509152604 55 216 0.0 3.0 0.00 0.00 0.00 89 1019.7
20260509152105 55 216 0.0 3.0 0.00 0.00 0.00 89 1019.8
20260509151604 54 284 0.0 3.0 0.00 0.00 0.00 89 1019.7
20260509150604 54 195 1.0 3.0 0.00 0.00 0.00 89 1019.8
20260509150105 54 195 1.0 2.0 0.00 0.00 0.00 89 1019.9
20260509145605 53 195 0.0 1.0 0.00 0.00 0.00 90 1019.8
20260509145104 53 199 0.0 1.0 0.00 0.00 0.00 89 1019.7
20260509144104 52 196 0.0 1.0 0.00 0.00 0.00 89 1019.7
20260509143605 52 195 0.0 1.0 0.00 0.00 0.00 89 1019.8
20260509142603 51 195 0.0 1.0 0.00 0.00 0.00 89 1019.8
20260509142104 51 195 0.0 1.0 0.00 0.00 0.00 89 1019.8
20260509141604 50 195 0.0 0.0 0.00 0.00 0.00 89 1019.9
20260509141103 50 197 0.0 0.0 0.00 0.00 0.00 88 1019.9
20260509140604 49 195 0.0 0.0 0.00 0.00 0.00 88 1019.9
20260509140104 49 195 0.0 0.0 0.00 0.00 0.00 88 1019.9
20260509135605 48 195 0.0 0.0 0.00 0.00 0.00 87 1019.9
20260509135104 48 195 0.0 0.0 0.00 0.00 0.00 87 1019.9
20260509134604 48 198 0.0 0.0 0.00 0.00 0.00 87 1019.9
20260509134105 48 195 0.0 0.0 0.00 0.00 0.00 87 1019.8
20260509133603 48 197 0.0 0.0 0.00 0.00 0.00 87 1019.7
20260509133105 48 196 0.0 0.0 0.00 0.00 0.00 87 1019.8
20260509131605 48 195 0.0 0.0 0.00 0.00 0.00 86 1020.0
20260509130607 49 200 0.0 0.0 0.00 0.00 0.00 86 1019.9
20260509125103 49 197 0.0 0.0 0.00 0.00 0.00 86 1020.2
20260509124603 49 195 0.0 0.0 0.00 0.00 0.00 86 1020.1
20260509124105 49 195 0.0 0.0 0.00 0.00 0.00 86 1020.1
20260509123604 49 195 0.0 0.0 0.00 0.00 0.00 85 1020.1
20260509123103 49 195 0.0 0.0 0.00 0.00 0.00 85 1020.1
20260509122603 50 195 0.0 0.0 0.00 0.00 0.00 85 1020.1